User: anonymous   Login
Location: San Vito
(41.8833°N, 12.9833°E)
Time: 23:47:52
(UTC+00:00)
Language:

CZ-4B R/B - Orbit

View from above orbital plane
View from above orbital plane
View from above satellite
View from above satellite

Ground track
Ground track

The orbit data is extracted from the following two-line orbital elements,

1 37181U 10051C   20023.53481469 +.00000229 +00000-0 +22005-4 0  9990
2 37181 097.7472 007.0261 0110317 083.2490 031.8991 14.98333364507268
Epoch (UTC): 23 January 2020 12:50:07
Eccentricity: 0.0110317
inclination: 97.7472°
perigee height: 495 km
apogee height: 649 km
right ascension of ascending node: 7.0261°
argument of perigee: 83.2490°
revolutions per day: 14.98333364
mean anomaly at epoch: 31.8991°
orbit number at epoch: 50726

The dashed part of the orbit path shows where the satellite is in the earth's shadow,  

DLR